When you browse on this site, cookies collect data to enhance your experience and personalize the content and advertising you see.
Visit our Privacy Policy to learn more. By continuing to use the site, you agree to this use of cookies and data.
  • In Slovakia
  • List of Countries
  • For 7 days
  • Water Temperature
  • Weather Map
  • Weather Widgets
  • user-avatar
    Login

    Hourly Weather Mauritius

    Today, 22 August, Thursday

    Time Temperature Precipitation Wind Pressure Humidity
    00:00 +20°C° 0 mm 3 mps 727 mmHg 77%
    01:00 +20°C° 0 mm 2 mps 727 mmHg 77%
    02:00 +19°C° 0 mm 2 mps 727 mmHg 77%
    03:00 +19°C° 0 mm 2 mps 727 mmHg 78%
    04:00 +19°C° 0 mm 2 mps 727 mmHg 78%
    05:00 +19°C° 0 mm 2 mps 727 mmHg 78%
    06:00 +19°C° 0 mm 2 mps 727 mmHg 78%
    07:00 +19°C° 0 mm 2 mps 727 mmHg 79%
    08:00 +20°C° 0 mm 2 mps 727 mmHg 74%
    09:00 +21°C° 0 mm 2 mps 727 mmHg 69%
    10:00 +23°C° 0 mm 2 mps 728 mmHg 64%
    11:00 +24°C° 0 mm 3 mps 727 mmHg 62%
    12:00 +24°C° 0 mm 3 mps 727 mmHg 60%
    13:00 +25°C° 0 mm 3 mps 727 mmHg 57%
    14:00 +25°C° 0 mm 3 mps 726 mmHg 59%
    15:00 +24°C° 0 mm 3 mps 726 mmHg 61%
    16:00 +24°C° 0 mm 3 mps 726 mmHg 63%
    17:00 +23°C° 0 mm 2 mps 726 mmHg 65%
    18:00 +23°C° 0 mm 2 mps 726 mmHg 68%
    19:00 +21°C° 0 mm 2 mps 726 mmHg 71%
    20:00 +21°C° 0 mm 2 mps 727 mmHg 72%
    21:00 +21°C° 0 mm 2 mps 727 mmHg 73%
    22:00 +20°C° 0 mm 2 mps 728 mmHg 74%
    23:00 +20°C° 0 mm 2 mps 727 mmHg 75%

    Tomorrow, 23 August, Friday

    Time Temperature Precipitation Wind Pressure Humidity
    00:00 +20°C° 0 mm 2 mps 727 mmHg 75%
    01:00 +20°C° 0 mm 2 mps 727 mmHg 76%
    02:00 +19°C° 0 mm 2 mps 727 mmHg 77%
    03:00 +19°C° 0 mm 2 mps 726 mmHg 78%
    04:00 +19°C° 0 mm 2 mps 726 mmHg 79%
    05:00 +19°C° 0 mm 2 mps 727 mmHg 79%
    06:00 +19°C° 0 mm 2 mps 727 mmHg 79%
    07:00 +19°C° 0 mm 2 mps 727 mmHg 79%
    08:00 +20°C° 0 mm 3 mps 727 mmHg 75%
    09:00 +21°C° 0 mm 3 mps 728 mmHg 70%
    10:00 +22°C° 0 mm 3 mps 728 mmHg 65%
    11:00 +23°C° 0 mm 4 mps 728 mmHg 64%
    12:00 +23°C° 0 mm 4 mps 727 mmHg 62%
    13:00 +23°C° 0 mm 4 mps 727 mmHg 60%
    14:00 +23°C° 0 mm 4 mps 727 mmHg 61%
    15:00 +24°C° 0 mm 3 mps 727 mmHg 61%
    16:00 +24°C° 0 mm 3 mps 727 mmHg 61%
    17:00 +22°C° 0 mm 3 mps 727 mmHg 65%
    18:00 +21°C° 0 mm 3 mps 727 mmHg 69%
    19:00 +21°C° 0 mm 3 mps 727 mmHg 73%
    20:00 +21°C° 0.1 mm 3 mps 727 mmHg 75%
    21:00 +20°C° 0.1 mm 3 mps 728 mmHg 78%
    22:00 +20°C° 0.1 mm 4 mps 728 mmHg 80%
    23:00 +20°C° 0 mm 3 mps 727 mmHg 81%

    Day after tomorrow, 24 August, Saturday

    Time Temperature Precipitation Wind Pressure Humidity
    00:00 +20°C° 0 mm 3 mps 727 mmHg 81%
    01:00 +19°C° 0 mm 3 mps 727 mmHg 81%
    02:00 +19°C° 0 mm 3 mps 727 mmHg 82%
    03:00 +19°C° 0 mm 3 mps 726 mmHg 83%
    04:00 +19°C° 0 mm 2 mps 726 mmHg 83%
    05:00 +19°C° 0 mm 2 mps 727 mmHg 83%
    06:00 +19°C° 0 mm 2 mps 727 mmHg 83%
    07:00 +19°C° 0 mm 2 mps 727 mmHg 83%
    08:00 +20°C° 0 mm 2 mps 728 mmHg 77%
    09:00 +21°C° 0 mm 3 mps 728 mmHg 71%
    10:00 +24°C° 0 mm 3 mps 728 mmHg 65%
    11:00 +24°C° 0 mm 3 mps 728 mmHg 64%
    12:00 +24°C° 0 mm 3 mps 727 mmHg 64%
    13:00 +24°C° 0 mm 3 mps 727 mmHg 63%
    14:00 +24°C° 0.1 mm 3 mps 727 mmHg 66%
    15:00 +22°C° 0.1 mm 4 mps 726 mmHg 69%
    16:00 +22°C° 0.1 mm 4 mps 726 mmHg 72%
    17:00 +21°C° 0.1 mm 4 mps 726 mmHg 74%
    18:00 +21°C° 0.1 mm 4 mps 727 mmHg 77%
    19:00 +20°C° 0.1 mm 4 mps 727 mmHg 80%
    20:00 +20°C° 0.1 mm 4 mps 727 mmHg 82%
    21:00 +20°C° 0.1 mm 3 mps 727 mmHg 83%
    22:00 +20°C° 0.1 mm 3 mps 727 mmHg 85%
    23:00 +20°C° 0.3 mm 3 mps 727 mmHg 84%

    25 August, Sunday

    Time Temperature Precipitation Wind Pressure Humidity
    00:00 +20°C° 0.3 mm 3 mps 727 mmHg 83%
    01:00 +20°C° 0.3 mm 3 mps 727 mmHg 82%
    02:00 +20°C° 0.1 mm 3 mps 727 mmHg 82%
    03:00 +20°C° 0.1 mm 4 mps 727 mmHg 82%
    04:00 +20°C° 0.1 mm 4 mps 727 mmHg 82%
    05:00 +20°C° 0 mm 4 mps 727 mmHg 81%
    06:00 +20°C° 0 mm 4 mps 727 mmHg 81%
    07:00 +20°C° 0 mm 4 mps 728 mmHg 80%
    08:00 +20°C° 0 mm 4 mps 728 mmHg 76%
    09:00 +21°C° 0 mm 4 mps 728 mmHg 71%
    10:00 +22°C° 0 mm 4 mps 729 mmHg 66%
    11:00 +22°C° 0 mm 5 mps 728 mmHg 65%
    12:00 +23°C° 0 mm 5 mps 728 mmHg 64%
    13:00 +23°C° 0 mm 5 mps 728 mmHg 63%
    14:00 +23°C° 0 mm 5 mps 727 mmHg 64%
    15:00 +22°C° 0 mm 5 mps 727 mmHg 65%
    16:00 +22°C° 0 mm 5 mps 727 mmHg 66%
    17:00 +21°C° 0 mm 5 mps 727 mmHg 70%
    18:00 +21°C° 0 mm 5 mps 728 mmHg 73%
    19:00 +20°C° 0 mm 5 mps 728 mmHg 76%
    20:00 +20°C° 0 mm 5 mps 728 mmHg 77%
    21:00 +20°C° 0 mm 5 mps 728 mmHg 77%
    22:00 +20°C° 0 mm 5 mps 728 mmHg 78%
    23:00 +20°C° 0 mm 5 mps 728 mmHg 78%

    26 August, Monday

    Time Temperature Precipitation Wind Pressure Humidity
    00:00 +20°C° 0 mm 5 mps 728 mmHg 78%
    01:00 +20°C° 0 mm 5 mps 728 mmHg 78%
    02:00 +20°C° 0 mm 5 mps 728 mmHg 80%
    03:00 +19°C° 0 mm 4 mps 728 mmHg 81%
    04:00 +19°C° 0 mm 4 mps 727 mmHg 82%
    05:00 +19°C° 0 mm 5 mps 728 mmHg 82%
    06:00 +19°C° 0 mm 5 mps 728 mmHg 81%
    07:00 +19°C° 0 mm 5 mps 729 mmHg 81%
    08:00 +20°C° 0.1 mm 5 mps 729 mmHg 76%
    09:00 +21°C° 0.1 mm 6 mps 729 mmHg 71%
    10:00 +22°C° 0.1 mm 6 mps 729 mmHg 66%
    11:00 +22°C° 0 mm 6 mps 729 mmHg 64%
    12:00 +23°C° 0 mm 6 mps 728 mmHg 62%
    13:00 +23°C° 0 mm 6 mps 728 mmHg 60%
    14:00 +23°C° 0.1 mm 6 mps 728 mmHg 64%
    15:00 +22°C° 0.1 mm 7 mps 727 mmHg 68%
    16:00 +22°C° 0.1 mm 7 mps 727 mmHg 71%
    17:00 +21°C° 0 mm 7 mps 727 mmHg 73%
    18:00 +21°C° 0 mm 7 mps 728 mmHg 76%
    19:00 +20°C° 0 mm 6 mps 728 mmHg 78%
    20:00 +20°C° 0 mm 6 mps 728 mmHg 79%
    21:00 +20°C° 0 mm 6 mps 728 mmHg 80%
    22:00 +20°C° 0 mm 6 mps 728 mmHg 81%
    23:00 +19°C° 0 mm 6 mps 728 mmHg 81%

    27 August, Tuesday

    Time Temperature Precipitation Wind Pressure Humidity
    00:00 +19°C° 0 mm 5 mps 728 mmHg 80%
    01:00 +19°C° 0 mm 5 mps 728 mmHg 79%
    02:00 +19°C° 0 mm 5 mps 728 mmHg 79%
    03:00 +19°C° 0 mm 5 mps 728 mmHg 80%
    04:00 +19°C° 0 mm 5 mps 727 mmHg 80%
    05:00 +19°C° 0 mm 5 mps 728 mmHg 79%
    06:00 +19°C° 0 mm 5 mps 728 mmHg 79%
    07:00 +19°C° 0 mm 5 mps 728 mmHg 79%
    08:00 +20°C° 0 mm 6 mps 728 mmHg 73%
    09:00 +21°C° 0 mm 6 mps 729 mmHg 67%
    10:00 +21°C° 0 mm 6 mps 729 mmHg 62%
    11:00 +22°C° 0 mm 6 mps 728 mmHg 61%
    12:00 +22°C° 0 mm 6 mps 728 mmHg 61%
    13:00 +22°C° 0 mm 6 mps 728 mmHg 60%
    14:00 +21°C° 0 mm 6 mps 727 mmHg 62%
    15:00 +21°C° 0 mm 6 mps 727 mmHg 63%
    16:00 +21°C° 0 mm 6 mps 727 mmHg 65%
    17:00 +20°C° 0 mm 6 mps 727 mmHg 67%
    18:00 +20°C° 0 mm 6 mps 728 mmHg 69%
    19:00 +19°C° 0 mm 6 mps 728 mmHg 71%
    20:00 +19°C° 0 mm 6 mps 728 mmHg 72%
    21:00 +19°C° 0 mm 6 mps 729 mmHg 72%
    22:00 +19°C° 0 mm 6 mps 729 mmHg 72%
    23:00 +19°C° 0 mm 6 mps 729 mmHg 72%
    Show more